Weather History for KFMM - September, 2013

Change the Weather History Date:

Tuesday, September 10, 2013

  Actual Average (KAKO) Record (KAKO)
Temperature  
Mean Temperature 66 °F 66 °F  
Max Temperature 75 °F 80 °F 95 °F (1974)
Min Temperature 58 °F 52 °F 37 °F (1970)
Degree Days  
Heating Degree Days 0    
Month to date heating degree days  
Cooling Degree Days 2    
Month to date cooling degree days  
Growing Degree Days 16 (Base 50)    
Moisture  
Dew Point 58 °F    
Average Humidity 75    
Maximum Humidity 96    
Minimum Humidity 53    
Precipitation  
Precipitation 0.00 in 0.04 in 0.35 in (1979)
Month to date precipitation 0.45  
Year to date precipitation 13.94  
Sea Level Pressure  
Sea Level Pressure 30.16 in    
Wind  
Wind Speed 5 mph (NNE)    
Max Wind Speed 13 mph    
Max Gust Speed -    
Visibility 10 miles    
Events Rain    
T = Trace of Precipitation, MM = Missing Value Source: NWS Daily Summary

Daily Weather History Graph

Daily Weather History Graph

Search for Another Location

Airport or City:

Trip Planner

Search our weather history database for the weather conditions in past years. The results will help you decide how hot, cold, wet, or windy it might be!

Date:

Astronomy

Sep. 10, 2013 Rise Set
Actual Time 6:31 AM MDT 7:11 PM MDT
Civil Twilight 6:04 AM MDT 7:39 PM MDT
Nautical Twilight 5:31 AM MDT 8:11 PM MDT
Astronomical Twilight 4:57 AM MDT 8:45 PM MDT
Moon 12:00 PM MDT (9/10) 10:16 PM MDT (9/10)
Length of Visible Light 13h 35m
Length of Day
12h 40m
Waxing Crescent, 29% of the Moon is Illuminated
Sep 10
Waxing Crescent
Sep 12
First Quarter
Sep 19
Full
Sep 26
Last Quarter
Oct 4
New

Hourly Weather History & Observations

Time (MDT) Temp. Dew Point Humidity Pressure Visibility Wind Dir Wind Speed Gust Speed Precip Events Conditions
12:15 AM 60.8 °F 58.3 °F 91% 30.09 in 10.0 mi North 8.1 mph - N/A Rain Light Rain
12:35 AM 61.0 °F 58.3 °F 91% 30.10 in 10.0 mi NNE 6.9 mph - N/A   Overcast
12:55 AM 61.0 °F 58.1 °F 90% 30.09 in 10.0 mi North 5.8 mph - N/A   Overcast
1:15 AM 61.0 °F 58.1 °F 90% 30.09 in 10.0 mi ENE 5.8 mph - N/A   Overcast
1:35 AM 60.6 °F 58.1 °F 91% 30.08 in 10.0 mi North 5.8 mph - N/A   Overcast
1:55 AM 60.1 °F 57.7 °F 92% 30.07 in 10.0 mi NNE 5.8 mph - N/A   Scattered Clouds
2:15 AM 59.7 °F 57.4 °F 92% 30.07 in 10.0 mi NE 5.8 mph - N/A   Scattered Clouds
2:35 AM 59.5 °F 57.6 °F 93% 30.08 in 10.0 mi NNE 4.6 mph - N/A   Scattered Clouds
2:55 AM 59.0 °F 57.0 °F 93% 30.08 in 10.0 mi North 3.5 mph - N/A   Clear
3:15 AM 58.8 °F 56.7 °F 93% 30.09 in 10.0 mi Calm Calm - N/A   Scattered Clouds
3:35 AM 59.4 °F 58.1 °F 96% 30.11 in 10.0 mi West 6.9 mph - N/A   Mostly Cloudy
3:55 AM 60.1 °F 58.5 °F 94% 30.11 in 10.0 mi West 8.1 mph - N/A   Overcast
4:15 AM 60.1 °F 58.3 °F 94% 30.11 in 10.0 mi WNW 5.8 mph - N/A   Overcast
4:35 AM 59.9 °F 58.3 °F 94% 30.11 in 10.0 mi WNW 4.6 mph - N/A   Scattered Clouds
4:55 AM 60.3 °F 58.6 °F 94% 30.11 in 10.0 mi WNW 5.8 mph - N/A   Mostly Cloudy
5:15 AM 60.3 °F 58.6 °F 94% 30.12 in 10.0 mi WNW 6.9 mph - N/A   Mostly Cloudy
5:35 AM 59.9 °F 58.1 °F 94% 30.12 in 10.0 mi NW 4.6 mph - N/A   Scattered Clouds
5:55 AM 59.4 °F 57.6 °F 94% 30.12 in 10.0 mi Calm Calm - N/A   Clear
6:15 AM 59.9 °F 57.6 °F 92% 30.13 in 10.0 mi Calm Calm - N/A   Mostly Cloudy
6:35 AM 59.9 °F 58.1 °F 94% 30.14 in 10.0 mi Calm Calm - N/A   Overcast
6:55 AM 60.4 °F 58.5 °F 93% 30.15 in 10.0 mi North 4.6 mph - N/A   Overcast
7:15 AM 61.0 °F 59.0 °F 93% 30.16 in 10.0 mi ENE 3.5 mph - N/A   Overcast
7:35 AM 61.3 °F 59.0 °F 92% 30.16 in 10.0 mi ENE 3.5 mph - N/A   Overcast
7:55 AM 61.7 °F 59.0 °F 91% 30.17 in 10.0 mi Calm Calm - N/A   Overcast
8:15 AM 62.4 °F 59.0 °F 89% 30.17 in 10.0 mi Calm Calm - N/A   Overcast
8:35 AM 63.7 °F 59.0 °F 85% 30.18 in 10.0 mi Calm Calm - N/A   Overcast
8:55 AM 63.9 °F 59.0 °F 84% 30.18 in 10.0 mi Calm Calm - N/A   Overcast
9:15 AM 64.4 °F 58.8 °F 82% 30.18 in 10.0 mi SSE 3.5 mph - N/A   Overcast
9:35 AM 64.0 °F 58.1 °F 81% 30.19 in 10.0 mi Calm Calm - N/A   Overcast
9:55 AM 65.5 °F 58.5 °F 78% 30.19 in 10.0 mi Calm Calm - N/A   Scattered Clouds
10:15 AM 66.6 °F 58.5 °F 75% 30.20 in 10.0 mi Calm Calm - N/A   Scattered Clouds
10:35 AM 69.6 °F 58.3 °F 67% 30.20 in 10.0 mi South 5.8 mph - N/A   Overcast
10:55 AM 69.8 °F 57.7 °F 65% 30.19 in 10.0 mi SSW 3.5 mph - N/A   Overcast
11:15 AM 69.4 °F 57.4 °F 65% 30.19 in 10.0 mi Calm Calm - N/A   Overcast
11:35 AM 69.6 °F 57.7 °F 66% 30.19 in 10.0 mi Calm Calm - N/A   Mostly Cloudy
11:55 AM 70.2 °F 57.2 °F 63% 30.19 in 10.0 mi WSW 3.5 mph - N/A   Mostly Cloudy
12:15 PM 72.5 °F 57.4 °F 59% 30.18 in 10.0 mi West 3.5 mph - N/A   Overcast
12:35 PM 72.1 °F 56.8 °F 58% 30.18 in 10.0 mi Calm Calm - N/A   Overcast
12:55 PM 73.0 °F 56.7 °F 56% 30.18 in 10.0 mi NNW 3.5 mph - N/A   Overcast
1:15 PM 72.1 °F 58.3 °F 62% 30.18 in 10.0 mi NW 8.1 mph - N/A   Overcast
1:35 PM 70.9 °F 57.9 °F 63% 30.18 in 10.0 mi WNW 4.6 mph - N/A   Overcast
1:55 PM 72.1 °F 57.4 °F 60% 30.18 in 10.0 mi North 6.9 mph - N/A   Overcast
2:15 PM 75.4 °F 57.4 °F 53% 30.17 in 10.0 mi North 5.8 mph - N/A   Mostly Cloudy
2:35 PM 74.7 °F 56.7 °F 53% 30.17 in 10.0 mi NE 5.8 mph - N/A   Mostly Cloudy
2:55 PM 74.5 °F 56.7 °F 54% 30.16 in 10.0 mi ENE 5.8 mph - N/A   Overcast
3:15 PM 74.1 °F 55.9 °F 53% 30.15 in 10.0 mi NNE 3.5 mph - N/A   Overcast
3:35 PM 74.1 °F 56.5 °F 54% 30.15 in 10.0 mi NE 6.9 mph - N/A   Overcast
3:55 PM 73.6 °F 55.6 °F 53% 30.15 in 10.0 mi NNE 5.8 mph - N/A   Overcast
4:15 PM 73.8 °F 56.1 °F 54% 30.14 in 10.0 mi NE 6.9 mph - N/A   Overcast
4:35 PM 74.3 °F 56.3 °F 53% 30.13 in 10.0 mi NNE 4.6 mph - N/A   Overcast
4:55 PM 74.5 °F 56.3 °F 53% 30.14 in 10.0 mi NE 9.2 mph - N/A   Overcast
5:15 PM 74.3 °F 57.0 °F 55% 30.14 in 10.0 mi NE 11.5 mph - N/A   Overcast
5:35 PM 72.5 °F 57.0 °F 58% 30.15 in 10.0 mi NE 10.4 mph - N/A   Overcast
5:55 PM 72.0 °F 56.3 °F 58% 30.15 in 10.0 mi NE 10.4 mph - N/A   Overcast
6:15 PM 71.6 °F 56.3 °F 58% 30.16 in 10.0 mi NE 9.2 mph - N/A   Overcast
6:35 PM 70.9 °F 56.1 °F 59% 30.17 in 10.0 mi NE 10.4 mph - N/A   Mostly Cloudy
6:55 PM 69.8 °F 56.3 °F 62% 30.17 in 10.0 mi NNE 11.5 mph - N/A   Scattered Clouds
7:15 PM 68.5 °F 56.3 °F 65% 30.17 in 10.0 mi NE 10.4 mph - N/A   Clear
7:35 PM 68.0 °F 56.7 °F 67% 30.17 in 10.0 mi NE 11.5 mph - N/A   Clear
7:55 PM 67.6 °F 56.5 °F 67% 30.17 in 10.0 mi NE 12.7 mph - N/A   Clear
8:15 PM 67.3 °F 56.1 °F 67% 30.19 in 10.0 mi NE 9.2 mph - N/A   Clear
8:35 PM 66.6 °F 56.7 °F 70% 30.19 in 10.0 mi NE 10.4 mph - N/A   Scattered Clouds
8:55 PM 65.7 °F 57.6 °F 75% 30.19 in 10.0 mi NE 9.2 mph - N/A   Scattered Clouds
9:15 PM 65.3 °F 57.4 °F 76% 30.20 in 10.0 mi NE 9.2 mph - N/A   Clear
9:35 PM 64.9 °F 57.4 °F 76% 30.21 in 10.0 mi NE 6.9 mph - N/A   Scattered Clouds
9:55 PM 64.8 °F 57.2 °F 76% 30.21 in 10.0 mi NNE 3.5 mph - N/A   Mostly Cloudy
10:15 PM 64.6 °F 57.2 °F 77% 30.22 in 10.0 mi ENE 3.5 mph - N/A   Light Drizzle
10:35 PM 64.4 °F 57.2 °F 77% 30.22 in 10.0 mi ENE 6.9 mph - N/A   Overcast
10:55 PM 64.4 °F 57.2 °F 77% 30.23 in 10.0 mi ENE 8.1 mph - N/A   Overcast
11:15 PM 63.1 °F 57.7 °F 83% 30.22 in 10.0 mi NE 8.1 mph - N/A   Light Drizzle
11:35 PM 63.5 °F 57.7 °F 81% 30.22 in 10.0 mi NE 10.4 mph - N/A   Overcast
11:55 PM 63.3 °F 57.6 °F 81% 30.22 in 10.0 mi ENE 10.4 mph - N/A   Overcast